Location: Betpouey
(42.8833°N, 0.0333°E)
Time: 21:49:05
(UTC+00:00)

CZ-4B R/B - Pass Details

Date: 01 December 2020
Orbit: 390 x 458 km, 97.6° (Epoch: 19 January)

Event Time Altitude Azimuth Distance (km) Brightness Sun altitude
Exits shadow 16:59:12 - 41° (NE) 1,773 3.8 -6.2°
Reaches altitude 10° 17:00:09 10° 52° (NE) 1,469 3.4 -6.3°
Maximum altitude 17:02:17 17° 95° (E) 1,129 2.9 -6.7°
Drops below altitude 10° 17:04:26 10° 138° (SE) 1,482 3.8 -7.0°
Sets 17:06:56 0° 160° (SSE) 2,355 5.1 -7.5°
